Satellite-Ground Cal/Val Site Overpasses Predictions

Prediction of Satellite NPP Overpassing Cal/Val Site: Antarctic Dome C

Ground Cal/Val Site Location: Latitude: -75.10, Longitude: 123.35; Satellite-Ground Site NADIR distance within 100 km.

Table of predicted overpasses for the next 14.0 days since TLE Epoch: 12/5/2020
Interval Starting Time Ending Time Minimum Distance Time Minimum Distance (km)
1 12/07/2020 14:54:25 12/07/2020 14:54:54 12/07/2020 14:54:40 18.69
2 12/08/2020 14:35:44 12/08/2020 14:35:57 12/08/2020 14:35:50 88.34
3 12/09/2020 07:37:15 12/09/2020 07:37:42 12/09/2020 07:37:29 35.40
4 12/10/2020 07:18:28 12/10/2020 07:18:47 12/10/2020 07:18:38 74.84
5 12/12/2020 15:00:40 12/12/2020 15:01:05 12/12/2020 15:00:52 55.45
6 12/13/2020 14:41:50 12/13/2020 14:42:15 12/13/2020 14:42:03 53.77
7 12/14/2020 07:43:30 12/14/2020 07:43:50 12/14/2020 07:43:40 70.36
8 12/15/2020 07:24:37 12/15/2020 07:25:04 12/15/2020 07:24:50 37.76
9 12/17/2020 15:07:00 12/17/2020 15:07:10 12/17/2020 15:07:05 92.79
